• în România
  • Lista ţărilor
  • Pe 7 zile
  • Temperatura apei
  • Hartă satelitară
  • Meteo pe hartă
  • Widget-uri
  • user-avatar
    Intrare

    Meteo pe oră la Kitzbuhel

    Astăzi, 23 Ianuarie, Marţi

    Timp Temperatura Precipitaţii Vânt Presiune Umiditate
    00:00 +3°C° 0,7 mm 2 m/s 674 mmHg 98%
    01:00 +2°C° 0 mm 2 m/s 675 mmHg 98%
    02:00 +2°C° 0,7 mm 2 m/s 675 mmHg 97%
    03:00 +2°C° 0,7 mm 2 m/s 676 mmHg 97%
    04:00 +2°C° 0,7 mm 2 m/s 676 mmHg 97%
    05:00 +1°C° 1 mm 2 m/s 677 mmHg 97%
    06:00 +1°C° 1 mm 2 m/s 678 mmHg 97%
    07:00 +1°C° 0 mm 2 m/s 678 mmHg 96%
    08:00 +1°C° 0,5 mm 2 m/s 679 mmHg 96%
    09:00 +1°C° 0,5 mm 2 m/s 679 mmHg 96%
    10:00 +1°C° 0,5 mm 2 m/s 680 mmHg 95%
    11:00 +2°C° 0,2 mm 2 m/s 680 mmHg 95%
    12:00 +2°C° 0,2 mm 2 m/s 680 mmHg 94%
    13:00 +2°C° 0,2 mm 2 m/s 681 mmHg 93%
    14:00 +2°C° 0 mm 2 m/s 681 mmHg 93%
    15:00 +3°C° 0 mm 1 m/s 681 mmHg 93%
    16:00 +3°C° 0 mm 1 m/s 681 mmHg 93%
    17:00 +1°C° 0 mm 1 m/s 681 mmHg 90%
    18:00 0°C° 0 mm 1 m/s 681 mmHg 86%
    19:00 -3°C° 0 mm 2 m/s 681 mmHg 83%
    20:00 -3°C° 0 mm 2 m/s 682 mmHg 79%
    21:00 -3°C° 0 mm 2 m/s 682 mmHg 75%
    22:00 -3°C° 0 mm 2 m/s 682 mmHg 70%
    23:00 -3°C° 0 mm 2 m/s 682 mmHg 69%

    Mâine, 24 Ianuarie, Miercuri

    Timp Temperatura Precipitaţii Vânt Presiune Umiditate
    00:00 -3°C° 0 mm 2 m/s 682 mmHg 67%
    01:00 -3°C° 0 mm 2 m/s 682 mmHg 65%
    02:00 -3°C° 0 mm 2 m/s 682 mmHg 64%
    03:00 -3°C° 0 mm 2 m/s 682 mmHg 64%
    04:00 -3°C° 0 mm 2 m/s 682 mmHg 63%
    05:00 -3°C° 0 mm 2 m/s 682 mmHg 63%
    06:00 -3°C° 0 mm 2 m/s 682 mmHg 62%
    07:00 -3°C° 0 mm 2 m/s 682 mmHg 62%
    08:00 -1°C° 0 mm 2 m/s 683 mmHg 65%
    09:00 +3°C° 0 mm 1 m/s 683 mmHg 68%
    10:00 +4°C° 0 mm 1 m/s 683 mmHg 71%
    11:00 +5°C° 0 mm 1 m/s 683 mmHg 76%
    12:00 +6°C° 0 mm 1 m/s 682 mmHg 82%
    13:00 +7°C° 0 mm 1 m/s 682 mmHg 87%
    14:00 +6°C° 0 mm 1 m/s 682 mmHg 86%
    15:00 +5°C° 0 mm 2 m/s 681 mmHg 84%
    16:00 +4°C° 0 mm 2 m/s 681 mmHg 83%
    17:00 +3°C° 0 mm 2 m/s 681 mmHg 79%
    18:00 +2°C° 0 mm 2 m/s 681 mmHg 76%
    19:00 -1°C° 0 mm 2 m/s 681 mmHg 72%
    20:00 -1°C° 0 mm 2 m/s 681 mmHg 71%
    21:00 -1°C° 0 mm 2 m/s 680 mmHg 70%
    22:00 -1°C° 0 mm 2 m/s 680 mmHg 69%
    23:00 -1°C° 0 mm 2 m/s 680 mmHg 69%

    Poimâine, 25 Ianuarie, Joi

    Timp Temperatura Precipitaţii Vânt Presiune Umiditate
    00:00 -1°C° 0 mm 2 m/s 680 mmHg 68%
    01:00 -1°C° 0 mm 2 m/s 680 mmHg 68%
    02:00 -1°C° 0 mm 2 m/s 680 mmHg 68%
    03:00 -1°C° 0 mm 2 m/s 679 mmHg 68%
    04:00 -1°C° 0 mm 2 m/s 679 mmHg 67%
    05:00 -1°C° 0 mm 2 m/s 679 mmHg 67%
    06:00 -1°C° 0 mm 2 m/s 679 mmHg 67%
    07:00 -1°C° 0 mm 2 m/s 679 mmHg 68%
    08:00 +1°C° 0 mm 2 m/s 678 mmHg 70%
    09:00 +2°C° 0 mm 2 m/s 678 mmHg 73%
    10:00 +3°C° 0 mm 2 m/s 678 mmHg 76%
    11:00 +4°C° 0 mm 2 m/s 678 mmHg 80%
    12:00 +4°C° 0 mm 2 m/s 677 mmHg 83%
    13:00 +5°C° 0 mm 2 m/s 677 mmHg 87%
    14:00 +5°C° 0 mm 2 m/s 676 mmHg 88%
    15:00 +4°C° 0 mm 2 m/s 676 mmHg 89%
    16:00 +4°C° 0 mm 2 m/s 675 mmHg 90%
    17:00 +3°C° 0 mm 2 m/s 675 mmHg 90%
    18:00 +2°C° 0 mm 2 m/s 675 mmHg 89%
    19:00 +1°C° 0 mm 2 m/s 675 mmHg 88%
    20:00 +1°C° 0 mm 2 m/s 675 mmHg 88%
    21:00 +1°C° 0 mm 2 m/s 675 mmHg 88%
    22:00 -1°C° 0 mm 2 m/s 675 mmHg 87%
    23:00 -1°C° 0 mm 2 m/s 674 mmHg 87%

    26 Ianuarie, Vineri

    Timp Temperatura Precipitaţii Vânt Presiune Umiditate
    00:00 -1°C° 0 mm 2 m/s 674 mmHg 87%
    01:00 -1°C° 0 mm 2 m/s 674 mmHg 87%
    02:00 -1°C° 0 mm 2 m/s 674 mmHg 87%
    03:00 -1°C° 0 mm 2 m/s 673 mmHg 87%
    04:00 -1°C° 0 mm 2 m/s 673 mmHg 87%
    05:00 -1°C° 0 mm 2 m/s 673 mmHg 87%
    06:00 -1°C° 0 mm 2 m/s 673 mmHg 87%
    07:00 -1°C° 0 mm 2 m/s 673 mmHg 87%
    08:00 +1°C° 0 mm 2 m/s 673 mmHg 88%
    09:00 +2°C° 0 mm 2 m/s 674 mmHg 90%
    10:00 +3°C° 0 mm 2 m/s 674 mmHg 91%
    11:00 +3°C° 0 mm 2 m/s 674 mmHg 92%
    12:00 +4°C° 0 mm 2 m/s 675 mmHg 93%
    13:00 +4°C° 0 mm 2 m/s 675 mmHg 94%
    14:00 +4°C° 0,1 mm 2 m/s 675 mmHg 95%
    15:00 +3°C° 0,1 mm 2 m/s 675 mmHg 96%
    16:00 +3°C° 0,1 mm 2 m/s 675 mmHg 96%
    17:00 +3°C° 0,5 mm 2 m/s 676 mmHg 96%
    18:00 +2°C° 0,5 mm 2 m/s 676 mmHg 97%
    19:00 +3°C° 0,5 mm 1 m/s 677 mmHg 97%
    20:00 +2°C° 1 mm 1 m/s 677 mmHg 97%
    21:00 +2°C° 1 mm 1 m/s 677 mmHg 97%
    22:00 +2°C° 1 mm 1 m/s 678 mmHg 97%
    23:00 +2°C° 1 mm 1 m/s 678 mmHg 97%

    27 Ianuarie, Sâmbătă

    Timp Temperatura Precipitaţii Vânt Presiune Umiditate
    00:00 +1°C° 1 mm 1 m/s 678 mmHg 97%
    01:00 +1°C° 1 mm 1 m/s 678 mmHg 97%
    02:00 +1°C° 1 mm 1 m/s 678 mmHg 97%
    03:00 +1°C° 1 mm 1 m/s 679 mmHg 97%
    04:00 +1°C° 1 mm 1 m/s 679 mmHg 97%
    05:00 +1°C° 0,8 mm 1 m/s 679 mmHg 97%
    06:00 0°C° 0,8 mm 1 m/s 679 mmHg 97%
    07:00 0°C° 0,8 mm 1 m/s 680 mmHg 97%
    08:00 +1°C° 0,6 mm 1 m/s 680 mmHg 97%
    09:00 +1°C° 0,6 mm 1 m/s 681 mmHg 96%
    10:00 +1°C° 0,6 mm 1 m/s 681 mmHg 95%
    11:00 +2°C° 0,2 mm 1 m/s 682 mmHg 94%
    12:00 +2°C° 0,2 mm 1 m/s 682 mmHg 94%
    13:00 +3°C° 0,2 mm 1 m/s 682 mmHg 93%
    14:00 +3°C° 0,1 mm 1 m/s 682 mmHg 93%
    15:00 +3°C° 0,1 mm 1 m/s 682 mmHg 94%
    16:00 +3°C° 0,1 mm 1 m/s 683 mmHg 94%
    17:00 +2°C° 0 mm 1 m/s 683 mmHg 95%
    18:00 +1°C° 0 mm 1 m/s 683 mmHg 96%
    19:00 +1°C° 0 mm 1 m/s 683 mmHg 96%
    20:00 0°C° 0 mm 1 m/s 684 mmHg 95%
    21:00 0°C° 0 mm 1 m/s 684 mmHg 94%
    22:00 0°C° 0 mm 1 m/s 684 mmHg 93%
    23:00 -1°C° 0 mm 1 m/s 684 mmHg 92%

    28 Ianuarie, Duminică

    Timp Temperatura Precipitaţii Vânt Presiune Umiditate
    00:00 -1°C° 0 mm 1 m/s 684 mmHg 91%
    01:00 -1°C° 0 mm 1 m/s 684 mmHg 90%
    02:00 -1°C° 0 mm 1 m/s 684 mmHg 89%
    03:00 -1°C° 0 mm 1 m/s 684 mmHg 88%
    04:00 -1°C° 0 mm 1 m/s 684 mmHg 87%
    05:00 -1°C° 0 mm 1 m/s 685 mmHg 86%
    06:00 -1°C° 0 mm 1 m/s 685 mmHg 85%
    07:00 -1°C° 0 mm 1 m/s 685 mmHg 84%
    08:00 0°C° 0 mm 1 m/s 686 mmHg 84%
    09:00 +2°C° 0 mm 1 m/s 686 mmHg 83%
    10:00 +3°C° 0 mm 1 m/s 686 mmHg 83%
    11:00 +4°C° 0 mm 1 m/s 686 mmHg 85%
    12:00 +5°C° 0 mm 1 m/s 686 mmHg 87%
    13:00 +6°C° 0 mm 1 m/s 686 mmHg 89%
    14:00 +5°C° 0 mm 1 m/s 686 mmHg 90%
    15:00 +5°C° 0 mm 1 m/s 686 mmHg 90%
    16:00 +5°C° 0 mm 1 m/s 686 mmHg 90%
    17:00 +4°C° 0 mm 1 m/s 686 mmHg 87%
    18:00 +2°C° 0 mm 2 m/s 686 mmHg 84%
    19:00 +2°C° 0 mm 2 m/s 687 mmHg 80%
    20:00 +2°C° 0,1 mm 2 m/s 687 mmHg 80%
    21:00 +2°C° 0,1 mm 2 m/s 687 mmHg 81%
    22:00 +2°C° 0,1 mm 2 m/s 687 mmHg 81%
    23:00 +2°C° 0,1 mm 2 m/s 687 mmHg 82%
    Arată mai mult